This is the latest recevied weather packets stored in our database for station/object N5ZP. If no packets are shown the sender has not sent any weather packets the latest 10 day(s).
| Time | Temp. | Humidity | Pressure | Rain* | Wind** | Luminosity | Snow |
|---|---|---|---|---|---|---|---|
| 1778117160 | 16.11° C | 73% | 1012.5 hPa | 0 mm | - | 1 W/m² | - |
| 1778116855 | 16.11° C | 72% | 1012.5 hPa | 0 mm | - | 2 W/m² | - |
| 1778116554 | 16.11° C | 71% | 1012.4 hPa | 0 mm | - | 3 W/m² | - |
| 1778116245 | 16.67° C | 71% | 1012.1 hPa | 0 mm | - | 5 W/m² | - |
| 1778115944 | 16.67° C | 70% | 1012 hPa | 0 mm | - | 8 W/m² | - |
| 1778115641 | 16.67° C | 70% | 1011.9 hPa | 0 mm | - | 12 W/m² | - |
| 1778115338 | 16.67° C | 69% | 1012 hPa | 0 mm | - | 15 W/m² | - |
| 1778115034 | 17.22° C | 69% | 1011.9 hPa | 0 mm | - | 22 W/m² | - |
| 1778114732 | 17.22° C | 69% | 1011.7 hPa | 0 mm | - | 26 W/m² | - |
| 1778114429 | 17.22° C | 69% | 1011.9 hPa | 0 mm | - | 30 W/m² | - |
| 1778114125 | 17.22° C | 69% | 1011.7 hPa | 0 mm | - | 37 W/m² | - |
| 1778113820 | 17.78° C | 69% | 1011.7 hPa | 0 mm | - | 38 W/m² | - |
| 1778113516 | 17.78° C | 68% | 1011.4 hPa | 0 mm | - | 50 W/m² | - |
| 1778113213 | 17.78° C | 68% | 1011.5 hPa | 0 mm | - | 51 W/m² | - |
| 1778112909 | 17.78° C | 68% | 1011.7 hPa | 0 mm | - | 54 W/m² | - |
| 1778112607 | 17.78° C | 68% | 1011.6 hPa | 0 mm | - | 61 W/m² | - |
| 1778112302 | 18.33° C | 67% | 1011.5 hPa | 0 mm | - | 71 W/m² | - |
| 1778111998 | 18.33° C | 67% | 1011.3 hPa | 0 mm | - | 80 W/m² | - |
| 1778111696 | 18.33° C | 67% | 1010.9 hPa | 0 mm | - | 75 W/m² | - |
| 1778111391 | 18.33° C | 66% | 1011.1 hPa | 0 mm | - | 73 W/m² | - |
| 1778111089 | 18.33° C | 66% | 1010.9 hPa | 0 mm | - | 73 W/m² | - |
| 1778110787 | 18.89° C | 65% | 1011.2 hPa | 0 mm | - | 82 W/m² | - |
| 1778110483 | 18.89° C | 64% | 1010.8 hPa | 0 mm | - | 118 W/m² | - |
| 1778110179 | 19.44° C | 63% | 1011.1 hPa | 0 mm | - | 116 W/m² | - |
| 1778109876 | 19.44° C | 63% | 1010.9 hPa | 0 mm | - | 195 W/m² | - |
* Rain latest hour (hover to see other rain measurements)
** Current wind speed in m/s (hover to see current wind gust speed)